CZ-4C R/B, 43264

Orbit data source: Space-Track

CZ-4C R/B, 43264 is space debris in SSO originally from a launch on Sat, 31 Mar 2018 UTC launched from the Taiyaun Space Center, China (TSC). Debris objects in space refer to the collection of defunct objects orbiting the Earth. Examples of debris include non-operational satellites, rocket bodies, and fragments generated from explosions, collisions, or faulty payload assembly.

Loading next visibility...
Identifier
43264, 2018-031F
Orbit
SSO
Country
Flag of CNCN / PRC
Related business
Manufacturer
SAST
Mission
Spacecraft
Bus & Motor
CZ-4 STAGE 3, Unknown motor
Mass
~1,000 kg wet, ~1,000 kg dry
Launch date (UTC)
2018-03-31 (8 years ago)
Launch vehicle
Unknown
Launch site
Taiyaun Space Center, China (TSC)
Object type
Payload
Rocket body
Debris
Shape & HBR
Cyl, 1.4 m
Radar Cross Section
7.676 m², Large (>1 m²)

Expand to show TLE details & history
Last TLE update: 11 hours ago

TLE from 11 hours ago
0 CZ-4C R/B
1 43264U 18031F   25304.25592673  .00010377  00000-0  44025-3 0  9991
2 43264  98.1351 201.7907 0085863 105.5896 255.4835 15.19954522416431
Epoch: 2025-10-31T06:08Z
TLE epoch observation values (Epoch: 2025-10-31T06:08:32.069Z)
Latitude
0.00002°
Longitude
69.8541°
Altitude
524.341 km
Speed
7.593 km/s
True Right ascension
13h 27m 09s
True Declination
0° 00' 00"
Sunlit
Object was in daylight at epoch
Visualization orbit readout
Latitude
Unknown
Longitude
Unknown
Altitude
Unknown
Speed
Unknown
Apparent Right ascension
Unknown
Apparent Declination
Unknown
Sunlit
N/A
Visualization observer readout
Local Sidereal Time
13:05:48
Azimuth
Unknown
Elevation
Unknown
Doppler factor
Unknown
Orbital elements
Apogee altitude
562.059 km
Perigee altitude
443.893 km
Semi-major axis
6,881.113 km
Eccentricity
0.00859
Inclination
98.1351°
RAAN
201.7907°
Arg. of periapsis
105.5896°
True anomaly
254.53359°
Mean anomaly
255.4835°
Eccentric anomaly
255.00829°
Mean motion
3.80238 °/min
Orbital period
94.68 mins
BSTAR
0.00044025
Loading maneuver chart data...
Computing Atmospheric mass density...
Loading historical data...
Loading historical data...
Loading historical data...
Loading historical data...
Loading historical data...
Loading historical data...
Loading historical data...

Documentation

Showing up to 5 results
|